Terminal Aerodrome Forecast
Issued by NWS

Home | Current Version | Previous Version | Text Only | Print | Product List | Glossary On
Versions: 1 2 3 4 5 6 7 8 9 10 11 12 13 14 15
000
FTUS43 KDVN 311100
TAFBRL
TAF
KBRL 311127Z 3112/0112 23006KT P6SM SCT090
     FM311600 24008KT P6SM BKN015
     FM311900 21005KT 3SM -RA BR OVC012
     FM010200 VRB05KT 2SM -RASN BR OVC007
     FM010400 13010KT 1/2SM SN FG OVC003=

USA.gov is the U.S. government's official web portal to all federal, state and local government web resources and services.